2021-117C (49814 NORAD) Tracking and Keplerian Element Data
This shows tracking and keplerian element data for the satellite.
Feedback or suggestion? Click here.
Element | Value |
Catalog | 49814 |
Name | 2021-117C |
Epoch Orbit | 2510 |
Epoch Day | 140.8122885 |
Epoch Year | 2022 |
RAAN | 216.9282 |
Inclination | 97.3841 |
Eccentricity | 0.0013959 |
Argument of Perigee | 73.604 |
Mean Anonmoly | 23.7241 |
Mean Motion | 15.28006097 |
Decay Rate | 0.00024235 |
L1 | 1 49814U 21117C 22140.81228850 .00024235 00000+0 88536-3 0 9999 |
L2 | 2 49814 97.3841 216.9282 0013959 73.6040 23.7241 15.28006097 25102 |
Live tracking and technical data element details for 2021-117C (NORAD 49814). 2021-117C can be tracked NOW for your location showing map with azimuth and elevation plus other details from your city location.
Track the satellite on the map from your city or location and see movement details for azimuth, elevation, latitude, longitude, range, height, and movement on the map or in text.
IsCatalogInMostPopularTable: catalog: 49814, numindb: 20
Update: records affected: 1
GetName: 49814 2021-117C
Hit Count: updated at: Sun, 22 May 2022 03:55:39 GMT